Weather History for Guymon, OK

Change the Weather History Date:

Sunday, November 25, 2012

  Actual Average Record
Temperature  
Mean Temperature 48 °F 41 °F  
Max Temperature 62 °F 56 °F 69 °F (2001)
Min Temperature 33 °F 27 °F 11 °F (2010)
Degree Days  
Heating Degree Days 17 24  
Month to date heating degree days 313 457  
Since 1 July heating degree days 621 766  
Cooling Degree Days 0 0  
Month to date cooling degree days 0 0  
Year to date cooling degree days 1917 1481  
Moisture  
Dew Point 20 °F    
Average Humidity 36    
Maximum Humidity 52    
Minimum Humidity 20    
Precipitation  
Precipitation 0.00 in 0.02 in 0.10 in (2011)
Month to date precipitation T 0.47  
Year to date precipitation 10.79 18.60  
Snow  
Snow 0.00 in - - ()
Month to date snowfall 0.0  
Since 1 July snowfall 0.0  
Since 1 September snowfall 0.0  
Snow Depth 0.00 in    
Sea Level Pressure  
Sea Level Pressure 29.85 in    
Wind  
Wind Speed 8 mph (NNE)    
Max Wind Speed 17 mph    
Max Gust Speed 22 mph    
Visibility 10 miles    
Events      
T = Trace of Precipitation, MM = Missing Value Source: NWS Daily Summary

Daily Weather History Graph

Daily Weather History Graph

Search for Another Location

Airport:

Trip Planner

Search our weather history database for the weather conditions in past years. The results will help you decide how hot, cold, wet, or windy it might be!

Date:

Astronomy

Nov. 25, 2012 Rise Set
Actual Time 7:34 AM CST 5:31 PM CST
Civil Twilight 7:06 AM CST 5:59 PM CST
Nautical Twilight 6:34 AM CST 6:31 PM CST
Astronomical Twilight 6:03 AM CST 7:02 PM CST
Moon 3:47 PM CST (11/25) 4:53 AM CST (11/25)
Length of Visible Light 10h 53m
Length of Day
9h 56m
Waxing Gibbous, 93% of the Moon is Illuminated
Nov 25
Waxing Gibbous
Nov 28
Full
Dec 6
Last Quarter
Dec 13
New
Dec 19
First Quarter

Hourly Weather History & Observations

Time (CST) Temp. Windchill Dew Point Humidity Pressure Visibility Wind Dir Wind Speed Gust Speed Precip Events Conditions
12:53 AM 41.0 °F 38.0 °F 18.0 °F 40% 29.81 in 10.0 mi West 4.6 mph - N/A   Clear
1:53 AM 39.0 °F 32.8 °F 16.0 °F 39% 29.80 in 10.0 mi WNW 9.2 mph - N/A   Clear
2:53 AM 39.0 °F 34.0 °F 16.0 °F 39% 29.81 in 10.0 mi NW 6.9 mph - N/A   Clear
3:53 AM 46.0 °F 39.6 °F 12.9 °F 26% 29.80 in 10.0 mi NNW 15.0 mph - N/A   Clear
4:53 AM 43.0 °F 36.8 °F 15.1 °F 32% 29.82 in 10.0 mi North 11.5 mph - N/A   Clear
5:53 AM 42.1 °F 36.1 °F 15.1 °F 34% 29.86 in 10.0 mi North 10.4 mph - N/A   Clear
6:53 AM 37.9 °F 31.5 °F 16.0 °F 41% 29.90 in 10.0 mi North 9.2 mph - N/A   Clear
7:53 AM 37.0 °F 31.0 °F 17.1 °F 44% 29.92 in 10.0 mi NNW 8.1 mph - N/A   Clear
8:53 AM 42.1 °F 35.7 °F 19.0 °F 40% 29.93 in 10.0 mi North 11.5 mph - N/A   Clear
9:53 AM 46.9 °F - 21.0 °F 36% 29.91 in 10.0 mi North 13.8 mph - N/A   Clear
10:53 AM 51.1 °F - 21.9 °F 32% 29.91 in 10.0 mi North 11.5 mph - N/A   Clear
11:53 AM 55.9 °F - 21.9 °F 27% 29.90 in 10.0 mi NNE 11.5 mph - N/A   Clear
12:53 PM 59.0 °F - 21.9 °F 24% 29.85 in 10.0 mi NNE 10.4 mph - N/A   Clear
1:53 PM 60.1 °F - 21.9 °F 23% 29.81 in 10.0 mi NNE 10.4 mph - N/A   Clear
2:53 PM 61.0 °F - 21.9 °F 22% 29.80 in 10.0 mi NNE 9.2 mph - N/A   Clear
3:53 PM 62.1 °F - 21.9 °F 21% 29.78 in 10.0 mi NE 8.1 mph - N/A   Clear
4:53 PM 59.0 °F - 21.9 °F 24% 29.79 in 10.0 mi East 4.6 mph - N/A   Clear
5:53 PM 55.0 °F - 23.0 °F 29% 29.80 in 10.0 mi East 5.8 mph - N/A   Clear
6:53 PM 50.0 °F - 21.9 °F 33% 29.83 in 10.0 mi East 4.6 mph - N/A   Clear
7:53 PM 48.0 °F - 21.9 °F 36% 29.84 in 10.0 mi ENE 4.6 mph - N/A   Clear
8:53 PM 44.1 °F - 21.0 °F 40% 29.85 in 10.0 mi Calm Calm - N/A   Clear
9:53 PM 39.0 °F 35.7 °F 21.0 °F 49% 29.85 in 10.0 mi NE 4.6 mph - N/A   Clear
10:53 PM 37.0 °F 34.5 °F 21.0 °F 52% 29.86 in 10.0 mi NNE 3.5 mph - N/A   Clear
11:53 PM 34.0 °F 28.0 °F 19.9 °F 56% 29.86 in 10.0 mi NNE 6.9 mph - N/A   Clear